Probability
0 0 0 0 0 0 0 0 0 0 0 0 0 0 0 0 1 3 2 2 3 5 7 11 14 14 13 13 13 11 8 6 6 6 6 5 5 5 3 1 2 2 1 0 0 0 0 0 0
0 0 0 0 0 0 0 0 0 0 0 0 0 0 0 1 2 3 3 2 3 4 6 9 11 12 12 13 14 13 11 8 7 7 6 5 6 7 5 2 1 2 2 1 0 0 0 0 0
0 0 0 0 0 0 0 0 0 0 0 0 0 0 0 1 3 4 3 2 3 5 5 6 7 9 10 12 14 14 12 9 8 8 7 5 5 7 7 4 3 3 3 2 1 1 1 1 0
0 0 0 0 0 0 0 0 0 0 0 0 0 0 0 1 3 4 3 2 4 5 5 5 6 7 8 10 11 12 10 8 7 7 6 6 5 5 6 7 6 5 4 3 3 2 2 2 1
0 0 0 0 0 0 0 0 0 0 0 0 0 0 1 2 4 5 5 5 5 5 4 5 5 5 5 6 8 8 7 6 6 5 5 6 4 3 4 7 8 7 5 5 4 3 3 3 3
1 1 0 0 0 0 0 0 0 0 0 0 0 1 3 4 6 8 9 9 7 6 5 4 4 4 4 4 4 5 5 5 6 5 6 6 6 4 4 6 7 7 7 6 6 4 4 4 4
0 0 0 0 0 0 0 0 0 0 0 0 2 4 5 6 8 10 11 11 10 9 8 5 3 3 2 3 3 4 4 5 6 6 6 7 7 6 5 6 7 8 8 8 8 6 4 4 5
0 0 0 0 0 0 0 0 0 0 0 0 2 4 6 7 8 8 8 8 8 9 9 7 5 3 2 2 2 3 3 4 5 6 6 6 6 5 5 6 8 9 9 10 9 6 4 4 4
0 0 0 0 0 0 0 0 0 0 0 0 2 4 5 6 7 6 6 5 5 6 6 6 6 5 4 3 3 3 3 3 3 4 4 4 4 4 4 4 7 9 10 10 10 8 5 4 3
0 0 0 0 0 0 0 0 0 0 0 0 2 3 5 6 6 6 6 4 3 3 3 3 4 5 5 5 6 6 4 3 2 1 2 3 6 6 6 7 9 10 10 9 10 9 7 5 4
0 0 0 0 0 0 0 0 0 0 0 0 1 3 6 6 6 6 6 5 4 3 3 3 2 3 4 6 8 8 7 5 3 2 3 6 9 10 11 15 17 15 13 12 13 12 10 6 4
0 0 0 0 0 0 0 0 0 0 0 0 1 3 5 6 6 6 5 4 3 2 3 3 3 2 2 4 7 8 8 7 6 5 6 8 11 12 14 19 22 22 20 18 18 18 13 8 6
0 0 0 0 0 0 0 0 0 0 0 0 1 2 4 5 5 4 4 2 1 1 1 2 3 3 3 3 4 5 5 5 6 7 7 8 11 13 15 18 21 23 25 24 23 22 17 11 9
0 0 0 0 0 0 0 0 0 0 0 0 0 1 1 3 3 3 2 2 1 1 0 1 2 2 2 2 2 2 2 3 4 6 6 6 9 12 14 16 17 19 22 25 25 22 19 15 12
0 0 0 0 0 0 0 0 0 0 0 0 0 0 0 1 1 1 1 1 2 1 0 0 1 1 1 1 1 0 1 1 3 6 7 6 6 9 11 12 13 14 18 24 25 23 22 18 15
0 0 0 0 0 0 0 0 0 0 0 0 0 0 0 0 0 0 0 1 1 1 0 0 0 0 0 0 0 0 0 0 2 5 7 7 5 6 7 9 10 11 15 22 25 24 23 20 16
0 0 0 0 0 0 0 0 0 0 0 0 0 0 0 0 0 0 0 0 0 0 0 0 0 0 0 0 0 0 0 0 1 3 5 5 3 3 4 6 7 8 14 21 23 22 22 19 16
0 0 0 0 0 0 0 0 0 0 0 0 0 0 0 0 0 0 0 0 0 0 0 0 0 0 0 0 0 0 0 0 0 1 2 2 1 2 3 4 4 7 12 16 18 18 19 19 17
0 0 0 0 0 0 0 0 0 0 0 0 0 0 0 0 0 0 0 0 0 0 0 0 0 0 0 0 0 0 0 0 0 0 0 0 0 2 3 3 3 5 8 11 13 14 16 17 17
0 0 0 0 0 0 0 0 0 0 0 0 0 0 0 0 0 0 0 0 0 0 0 0 0 0 0 0 0 0 0 0 0 0 0 0 0 1 3 3 3 4 5 6 7 9 11 13 13
0 0 0 0 0 0 0 0 0 0 0 0 0 0 0 0 0 0 0 0 0 0 0 0 0 0 0 0 0 0 0 0 0 0 0 0 0 1 2 3 3 3 3 2 2 3 6 8 8
0 0 0 0 0 0 0 0 0 0 0 0 0 0 0 0 0 0 0 0 0 0 0 0 0 0 0 0 0 0 0 0 0 0 0 0 0 0 1 2 2 2 1 1 0 0 2 3 4
0 0 0 0 0 0 0 0 0 0 0 0 0 0 0 0 0 0 0 0 0 0 0 0 0 0 0 0 0 0 0 0 0 0 0 0 0 0 0 1 1 1 0 0 0 0 0 1 1
0 0 0 0 0 0 0 0 0 0 0 0 0 0 0 0 0 0 0 0 0 0 0 0 0 0 0 0 0 0 0 0 0 0 0 0 0 0 0 0 0 0 0 0 0 0 0 0 0
0 0 0 0 0 0 0 0 0 0 0 0 0 0 0 0 0 0 0 0 0 0 0 0 0 0 0 0 0 0 0 0 0 0 0 0 0 0 0 0 0 0 0 0 0 0 0 0 0
0 0 0 0 0 0 0 0 0 0 0 0 0 0 0 0 0 0 0 0 0 0 0 0 0 0 0 0 0 0 0 0 0 0 0 0 0 0 0 0 0 0 0 0 0 0 0 0 0
0 0 0 0 0 0 0 0 0 0 0 0 0 0 0 0 0 0 0 0 0 0 0 0 0 0 0 0 0 0 0 0 0 0 0 0 0 0 0 0 0 0 0 0 0 0 0 0 0
0 0 0 0 0 0 0 0 0 0 0 0 0 0 0 0 0 0 0 0 0 0 0 0 0 0 0 0 0 0 0 0 0 0 0 0 0 0 0 0 0 0 0 0 0 0 0 0 0
0 0 0 0 0 0 0 0 0 0 0 0 0 0 0 0 0 0 0 0 0 0 0 0 0 0 0 0 0 0 0 0 0 0 0 0 0 0 0 0 0 0 0 0 0 0 0 0 0
0 0 0 0 0 0 0 0 0 0 0 0 0 0 0 0 0 0 0 0 0 0 0 0 0 0 0 0 0 0 0 0 0 0 0 0 0 0 0 0 0 0 0 0 0 0 0 0 0
Wind_Speed
1 1 3 4 6 6 10 6 4 6 5 2 1 2 2 1 0 4 5 4 3 2 3 5 5 4 4 4 5 6 6 6 6 7 7 8 8 8 8 8 8 8 8 9 9 10 10 10 10
1 2 4 5 8 9 8 7 7 5 4 4 3 3 3 3 4 5 3 3 3 3 3 4 6 5 4 4 4 4 5 5 6 6 7 7 7 8 8 8 8 8 8 8 8 9 10 10 10
2 2 4 5 8 9 6 7 7 5 4 3 4 2 1 4 4 3 3 2 2 3 4 6 6 6 5 4 3 3 3 3 4 5 6 7 7 7 8 7 8 8 8 8 8 9 10 10 10
3 4 4 7 10 6 3 4 6 7 5 3 4 5 4 4 3 3 3 2 3 4 4 6 6 5 5 5 3 2 1 2 3 4 5 6 7 7 7 7 6 7 8 8 9 9 10 10 10
2 4 6 7 9 5 3 3 6 7 6 5 4 4 4 4 3 3 3 3 4 4 4 6 7 7 5 4 3 3 1 0 1 3 4 6 7 8 7 7 7 7 8 9 9 10 10 10 10
4 4 7 9 9 5 4 4 6 6 5 4 4 4 5 5 3 4 4 4 4 5 4 4 6 6 5 5 4 3 2 1 1 2 4 5 7 8 7 7 7 8 8 9 10 10 10 10 10
4 4 6 8 7 6 4 4 6 5 5 4 3 4 6 5 3 3 4 4 5 5 5 4 3 3 4 5 5 4 3 3 2 2 2 3 5 6 7 8 8 9 8 9 10 10 10 10 10
2 3 5 6 8 6 5 3 2 4 3 2 2 4 5 5 3 3 4 5 5 6 5 5 4 4 3 2 4 4 4 3 3 3 3 3 4 6 7 9 8 9 9 9 10 10 10 10 10
3 4 5 5 6 5 5 4 2 1 4 2 1 1 4 5 3 3 3 4 5 6 6 6 5 5 4 3 2 3 2 3 3 3 3 4 5 7 7 8 7 9 9 10 10 10 10 9 9
3 4 3 1 0 3 4 3 3 4 5 3 4 4 5 4 3 3 3 4 5 6 6 6 6 6 5 4 3 2 3 3 3 3 4 4 4 4 5 6 7 9 9 10 10 10 10 10 8
2 2 2 1 1 2 3 2 1 5 4 3 5 6 5 4 3 3 3 3 4 5 6 6 6 6 5 3 3 3 2 3 3 4 4 4 4 4 4 4 6 8 9 9 9 11 9 9 7
3 1 1 2 1 1 2 2 1 1 0 2 4 4 4 3 2 2 2 3 4 5 6 6 6 6 5 5 4 3 3 3 3 4 4 4 3 4 4 4 5 6 5 7 7 7 9 10 10
4 3 2 2 3 2 2 2 1 1 1 3 4 4 3 2 2 2 2 3 3 4 6 6 7 6 6 5 4 4 4 4 4 4 4 5 4 5 5 4 4 6 6 7 7 8 9 10 10
4 4 3 1 1 1 2 1 1 2 3 5 5 3 3 2 1 1 2 3 4 4 5 6 6 6 6 5 4 4 4 4 4 4 4 5 4 5 5 5 5 5 6 6 7 8 8 7 7
4 5 4 2 1 1 1 1 3 3 4 5 4 3 3 2 1 1 1 2 4 4 5 6 6 6 6 6 5 4 4 4 4 4 4 5 5 5 5 5 5 6 6 7 7 8 7 7 7
3 4 4 2 0 0 3 3 3 3 4 4 4 3 2 2 1 1 1 2 3 4 5 6 5 6 6 6 6 4 4 4 4 4 4 5 5 5 5 5 6 6 6 6 6 7 7 7 7
3 3 3 2 1 1 3 4 3 3 4 5 4 4 3 2 1 0 1 2 3 4 5 6 6 6 6 6 5 5 4 4 4 3 3 4 5 5 5 5 5 6 6 6 6 6 6 7 7
3 3 2 2 1 2 4 6 4 4 6 6 5 5 4 3 2 1 1 2 3 4 5 6 6 6 7 5 4 4 4 3 3 3 4 5 4 4 5 4 5 6 5 6 6 7 6 6 6
3 3 2 0 1 3 5 7 7 5 7 7 6 6 5 4 2 1 1 2 3 4 5 6 6 6 6 5 5 4 4 4 3 3 4 4 5 5 4 4 5 5 5 6 7 6 7 6 5
3 3 1 0 1 3 4 8 6 5 7 6 7 6 5 4 3 2 2 2 3 4 5 6 6 6 6 5 5 4 5 4 4 4 4 4 5 5 4 5 4 5 5 6 6 6 5 5 5
1 1 1 1 2 2 4 5 4 4 5 5 6 6 5 5 5 3 3 3 3 4 4 5 6 6 6 6 5 4 4 4 3 4 3 4 4 4 4 5 4 4 5 5 5 6 7 6 5
0 0 1 1 2 1 3 4 4 5 6 7 7 7 6 5 4 4 3 3 3 4 4 5 5 6 5 5 5 6 5 5 5 4 4 4 4 5 4 5 5 5 4 5 5 6 5 6 5
1 1 1 1 2 3 3 5 4 4 7 8 8 7 6 5 4 4 3 3 3 3 4 4 5 5 5 5 5 6 5 5 4 4 5 4 4 4 4 4 4 5 4 5 5 6 6 5 6
2 2 2 1 2 4 3 5 5 5 6 5 6 6 5 4 4 3 3 3 2 3 3 4 4 5 5 5 5 5 6 6 6 5 5 4 3 3 4 4 4 4 4 5 5 5 6 5 6
1 1 1 2 3 3 2 5 7 2 3 5 5 5 4 3 3 3 2 2 2 3 3 4 5 5 5 5 5 5 6 6 6 5 4 4 4 4 4 5 4 4 4 4 4 5 5 6 6
1 2 2 3 3 1 3 7 4 0 2 3 4 4 3 3 3 3 2 2 2 3 3 4 5 5 5 6 6 6 6 4 4 5 4 4 4 4 5 6 5 5 5 4 5 4 5 4 5
2 2 1 1 1 4 5 5 6 3 4 5 5 4 4 3 3 3 2 2 3 3 3 4 4 5 5 6 6 6 6 5 5 5 4 4 4 4 5 5 5 5 5 5 5 4 5 5 5
2 1 3 3 3 4 5 6 4 3 4 4 5 4 4 3 3 3 3 3 3 3 3 4 4 5 5 6 6 5 6 6 5 5 5 5 5 5 5 5 5 5 5 5 5 5 5 5 5
4 3 3 2 3 4 5 4 1 3 3 3 4 4 4 4 4 4 4 3 3 3 3 4 4 5 5 6 6 6 6 6 5 4 5 5 5 5 5 5 5 5 5 5 5 5 5 6 5
4 4 5 4 4 4 5 6 2 2 3 3 4 3 4 5 5 5 4 4 3 3 4 4 4 4 5 5 6 6 6 6 5 5 5 5 5 5 5 4 4 5 5 5 5 5 5 6 6
Wind_Direction
258 220 213 205 201 215 221 196 186 167 172 168 176 201 194 152 4 83 78 53 30 58 74 85 75 99 124 139 148 153 155 156 158 158 159 159 161 159 162 162 156 153 148 146 143 141 138 133 131
232 202 197 210 219 210 206 195 189 175 132 135 146 165 148 104 55 79 85 34 22 58 73 76 67 74 93 109 125 145 159 168 171 170 171 169 169 170 169 170 165 162 156 152 149 146 143 140 138
181 217 204 201 220 221 189 179 182 153 142 159 141 120 97 99 93 80 51 31 46 72 71 71 62 66 68 79 107 124 150 172 178 179 180 181 181 179 177 173 173 168 163 159 155 152 151 149 148
196 186 206 217 210 215 204 146 158 154 159 162 156 131 104 60 56 59 53 48 62 64 66 69 54 60 58 58 62 87 142 170 180 187 194 193 192 191 184 177 173 172 169 168 166 163 159 157 157
210 204 197 207 209 194 186 155 168 170 158 157 167 135 112 94 69 73 65 58 62 58 51 61 46 45 43 44 45 37 35 191 208 206 206 206 204 203 196 184 178 176 176 174 174 171 167 164 166
185 211 209 203 193 180 175 177 182 176 156 149 163 144 111 110 84 62 63 62 57 54 46 53 46 36 31 29 25 17 2 354 299 244 228 219 216 211 204 198 190 186 186 184 182 178 175 174 174
208 209 215 201 186 182 163 167 189 179 166 150 159 147 130 127 69 60 69 63 56 46 38 35 29 35 31 21 14 4 352 338 322 295 271 246 229 221 214 205 201 198 196 194 189 187 184 184 181
246 199 190 194 188 173 145 151 163 187 143 102 191 167 146 127 88 77 73 59 48 37 28 20 16 9 360 3 11 358 345 328 312 301 293 268 237 224 221 214 207 203 201 200 197 194 193 190 185
231 213 199 192 191 156 151 156 125 123 136 123 99 65 104 115 122 100 73 48 37 28 19 12 7 2 351 339 339 320 310 307 278 254 253 249 232 224 216 220 209 205 203 203 201 199 197 192 187
216 212 194 150 202 154 156 160 150 170 167 156 137 122 120 129 121 84 51 31 22 15 8 5 1 355 347 338 326 305 291 278 266 262 250 246 246 240 237 209 207 209 206 205 204 201 197 202 197
180 195 148 125 86 148 151 146 187 184 187 182 161 141 135 134 108 81 53 27 14 5 2 359 352 347 343 333 323 311 300 290 274 267 257 253 247 244 237 221 205 212 210 212 204 203 206 210 207
141 122 151 129 107 135 150 154 154 245 219 125 142 142 143 137 110 77 49 25 10 2 359 356 348 343 339 330 319 308 299 295 288 276 265 256 248 244 241 235 223 219 216 216 214 213 211 214 214
138 131 111 99 99 100 118 151 159 187 147 139 142 149 151 133 100 64 44 21 9 3 358 353 347 342 336 327 315 305 299 295 292 283 271 259 250 246 240 242 236 229 226 219 219 218 216 215 217
124 121 112 82 110 114 132 135 185 190 151 147 150 159 150 128 102 74 44 18 8 359 352 347 343 339 333 324 315 307 301 293 290 283 278 265 253 251 246 242 240 237 232 229 224 221 220 219 219
134 128 115 78 96 104 194 205 194 170 164 161 160 162 146 126 120 95 35 8 358 349 344 340 338 338 332 325 316 306 296 290 286 283 282 274 263 255 248 243 239 239 235 231 230 225 221 221 218
156 164 156 107 36 341 241 224 153 163 182 187 177 177 170 155 148 94 18 358 348 339 337 336 337 336 332 326 314 303 296 290 283 281 279 277 270 262 254 248 242 241 238 230 228 225 218 218 218
162 170 163 142 110 212 234 242 189 186 206 212 196 192 190 185 184 165 353 343 339 334 333 335 336 336 331 325 312 302 295 289 284 281 279 278 273 266 257 254 254 246 239 232 228 225 221 219 219
165 175 186 197 104 241 239 249 242 220 218 222 208 200 201 208 215 243 315 329 330 331 331 333 334 335 329 322 313 306 295 289 284 283 283 282 276 269 260 256 255 248 240 235 230 227 222 224 222
151 167 180 286 351 272 250 261 264 239 218 215 207 202 205 213 219 234 283 311 323 332 332 330 332 333 331 328 323 315 310 303 292 285 284 283 280 271 259 256 255 249 239 237 236 231 225 223 219
145 162 153 129 32 284 279 276 266 234 219 215 209 205 209 218 223 237 274 303 316 323 328 327 327 326 326 322 315 301 303 301 299 291 287 287 281 272 265 256 252 251 245 239 237 233 229 225 218
93 207 193 277 325 246 282 261 206 190 202 212 217 217 221 225 234 242 262 289 306 317 322 320 320 319 319 318 311 304 298 289 290 298 297 299 293 282 275 266 261 255 247 243 238 233 233 226 221
157 81 231 240 265 264 288 274 211 192 208 211 211 212 221 225 236 248 264 284 298 311 320 320 321 318 319 318 313 312 305 299 298 299 297 300 295 292 284 273 266 258 250 249 243 235 235 231 226
56 71 210 246 253 258 224 250 238 186 219 212 208 211 219 221 230 246 264 282 294 308 317 322 322 321 323 319 315 311 305 298 295 298 298 302 305 305 303 290 279 267 257 253 247 240 234 232 232
142 144 138 188 234 245 213 242 250 199 211 203 199 206 212 217 230 246 266 279 291 312 320 322 323 326 329 324 318 310 306 300 295 296 300 303 307 309 309 299 285 275 269 261 249 241 235 235 236
209 226 223 210 221 236 145 244 256 239 219 223 215 209 212 219 229 245 263 278 292 310 323 323 324 327 329 325 320 316 308 301 295 297 296 298 301 303 305 295 284 272 265 261 256 248 242 235 234
216 276 287 270 265 285 205 243 260 328 237 235 232 226 223 225 228 241 256 272 285 301 314 321 321 322 325 325 322 318 314 306 300 301 300 296 294 296 302 295 283 271 262 256 250 245 245 241 237
193 190 336 298 288 266 242 257 271 209 221 217 220 223 228 228 231 242 255 269 283 293 304 310 313 316 321 323 320 318 318 315 307 303 299 294 292 290 292 293 283 275 265 254 249 241 241 242 242
313 168 189 216 254 265 260 249 247 210 210 207 218 227 231 230 238 245 250 262 276 287 298 303 308 311 315 319 319 318 318 316 311 302 300 299 296 293 290 293 280 270 266 258 245 242 239 239 242
176 191 217 226 268 270 278 262 210 242 245 235 236 243 243 241 250 255 256 261 269 281 291 297 303 308 312 314 315 317 317 316 313 304 301 300 297 298 294 288 284 273 268 262 251 242 240 238 240
244 227 209 233 229 242 272 275 96 251 258 255 267 266 261 255 260 263 258 256 259 270 282 290 296 299 305 309 311 315 316 313 310 306 305 304 303 301 295 285 283 279 272 266 259 249 243 241 242